User: anonymous
Location: Elk Forest
(39.5314°N, 75.8738°W)
Time: 20:08:38
(UTC-04:00)
Language:

Resurs 01 Rocket - Orbit

View from above orbital plane
View from above orbital plane
View from above satellite
View from above satellite

Ground track
Ground track

The orbit data is extracted from the following two-line orbital elements,

1 23343U 94074B   14241.01250057  .00000248  00000-0  43650-4 0   910
2 23343 098.2262 246.2185 0008459 109.4576 307.2856 14.76171369 65841
Epoch (UTC): 29 August 2014 00:18:00
Eccentricity: 0.0008459
inclination: 98.2262°
perigee height: 635 km
apogee height: 647 km
right ascension of ascending node: 246.2185°
argument of perigee: 109.4576°
revolutions per day: 14.76171369
mean anomaly at epoch: 307.2856°
orbit number at epoch: 6584

The dashed part of the orbit path shows where the satellite is in the earth's shadow,  

DLR